Regional Weather Roundup
Issued by NWS

Home | Current Version | Previous Version | Text Only | Print | Product List | Glossary Off
Versions: 1 2 3 4 5 6 7 8 9 10 11 12 13 14 15 16 17 18 19 20 21 22 23 24 25 26 27 28 29 30 31 32 33 34 35 36 37 38 39 40 41 42 43 44 45 46 47 48 49 50

000
ASUS43 KFSD 041410
RWRSD

WEATHER ROUNDUP FOR SOUTH DAKOTA
NATIONAL WEATHER SERVICE SIOUX FALLS SD
900 AM CDT FRI SEP 04 2015

NOTE: "FAIR" INDICATES FEW OR NO CLOUDS BELOW 12,000 FEET WITH NO
SIGNIFICANT WEATHER AND/OR OBSTRUCTIONS TO VISIBILITY.


SDZ001>005-009-010-012>017-041500-
NORTHWEST AND NORTH CENTRAL SOUTH DAKOTA

CITY           SKY/WX    TMP DP  RH WIND       PRES   REMARKS
BUFFALO          N/A     62  60  93 NW13      29.76S
MOBRIDGE       CLOUDY    71  69  93 SE9       29.71F
$$

SDZ012>016-024>037-041>051-057-063-072>074-041500-
SOUTHWEST AND SOUTH CENTRAL SOUTH DAKOTA

CITY           SKY/WX    TMP DP  RH WIND       PRES   REMARKS
RAPID CTY ARPT SUNNY     64  56  75 SE3       29.81R
PIERRE         CLOUDY    73  66  78 CALM      29.74R
CUSTER         SUNNY     66  44  45 NW3       29.97R
ELLSWORTH AFB  SUNNY     67  55  64 W2        29.80R
PHILIP         MOSUNNY   74  62  66 CALM      29.78R
PINE RIDGE     SUNNY     67  57  70 E3        29.85R
WINNER         FAIR      77  63  61 S8        29.78S
$$

SDZ004>011-016>023-039-040-041500-
NORTHEAST SOUTH DAKOTA

CITY           SKY/WX    TMP DP  RH WIND       PRES   REMARKS
ABERDEEN       CLOUDY    73  67  81 W8        29.78R
WATERTOWN      CLOUDY    74  68  81 SE6       29.82R
BROOKINGS      CLOUDY    72  66  83 S14G20    29.88R
SISSETON         N/A     74  71  91 S10       29.78R
$$

SDZ017-020-022-023-036>040-048>070-041500-
SOUTHEAST SOUTH DAKOTA

CITY           SKY/WX    TMP DP  RH WIND       PRES   REMARKS
SIOUX FALLS    CLOUDY    75  67  76 S10       29.86R
HURON          LGT RAIN  71  68  90 S16G26    29.81R
CHAMBERLAIN    CLOUDY    71  66  82 SE10      29.78F
MITCHELL       CLOUDY    75  67  76 SW7       29.85R
YANKTON        CLOUDY    79  64  61 S6        29.82R
$$

ABBREVIATIONS USED IN REMARKS
   TC - TEMPERATURE IN CELSIUS
  WCI - WIND CHILL INDEX
   HX - HEAT INDEX
  VSB - VISIBILITY




USA.gov is the U.S. government's official web portal to all federal, state and local government web resources and services.